[[{"header":{"parameterUnit":"m.s-1","parameterCategory":1,"la1":30.2991,"la2":30.254,"lo1":-89.0895,"lo2":-89.0444,"dy":0.0017,"dx":0.0017,"nx":28,"ny":28,"refTime":"2024-02-13T03:00:00:Z","depth":0,"parameterNumber":2,"parameterNumberName":"U-component_of_WINDS"},"data":[0,0,0,0,0,0,0,0,0,0,0,0,0,0,0,0,0,0,0,0,0,0,0,0,0,0,0,0,0,0,0,0,0,0,0,0,0,0,0,0,0,0,0,0,0,0,0,0,0,0,0,0,0,0,0,0,0,0,7.6745,7.6748,0,7.701,7.7013,7.7016,7.6981,7.6976,7.6972,7.6968,7.7243,7.7254,7.7265,0,0,0,0,0,0,0,0,0,0,0,0,0,7.6213,7.6223,7.6745,7.6748,7.6752,7.701,7.7014,7.7017,7.6981,7.6976,7.6971,7.6966,7.7239,7.7252,7.7266,0,0,0,0,0,0,0,0,0,0,0,0,0,7.6458,7.6226,7.6745,7.6765,7.6769,7.7009,7.7014,7.7018,7.6983,7.6976,7.6969,7.6963,7.7234,7.7251,7.7268,7.7505,0,0,7.732,7.7328,0,0,0,0,0,0,0,0,7.6444,7.6477,7.6759,7.6764,7.6769,7.6956,7.6927,7.7182,7.6984,7.6902,7.6968,7.696,7.7153,7.7176,7.724,7.7518,7.753,7.7322,7.7332,7.7339,7.7344,0,0,0,0,0,0,0,7.6427,7.6466,7.685,7.6763,7.6769,7.6763,7.679,7.6975,7.7061,7.6908,7.6906,7.6938,7.7154,7.7224,7.7247,7.7534,7.7321,7.7336,7.7347,7.7354,7.8025,7.8032,0,0,0,0,0,0,7.6404,7.6452,7.6842,7.6858,7.6587,7.6777,7.6808,7.6903,7.7059,7.7076,7.6943,7.6935,7.7198,7.7227,7.7256,7.7548,7.7339,7.7355,7.7365,7.8017,7.8027,7.8035,0,0,0,0,0,0,7.6393,7.6439,7.6831,7.6655,7.6704,7.6794,7.69,7.6911,7.6981,7.7085,7.7101,7.6999,7.7194,7.7232,7.7444,7.7557,7.7363,7.7379,7.8008,7.802,7.8031,7.8131,0,0,0,0,0,0,7.6378,7.6435,7.6525,7.6657,7.6713,7.7014,7.6907,7.6921,7.701,7.7002,7.7141,7.7158,7.7192,7.7419,7.7462,7.7577,7.7392,7.7999,7.8014,7.8027,7.8118,7.8144,7.8167,0,0,0,0,0,7.6359,7.6542,7.653,7.6577,7.6827,7.702,7.7053,7.7087,7.7019,7.7111,7.7179,7.7153,7.7537,7.7441,7.7489,7.7611,7.7992,7.8009,7.8026,7.8107,7.8139,7.8166,0,0,0,0,0,0,7.6422,7.656,7.6547,7.6779,7.6888,7.7013,7.7131,7.7119,7.725,7.7238,7.7275,7.7307,7.7523,7.7588,7.7478,7.7851,7.7756,7.7783,7.7801,7.7832,7.7856,7.7837,7.7406,0,0,0,0,0,7.6462,7.6606,7.6719,7.6913,7.6968,7.704,7.7125,7.7143,7.7258,7.7304,7.7387,7.7501,7.7647,7.7743,7.7883,7.8127,7.8159,7.8234,7.8258,7.8278,7.8302,7.844,7.8476,7.8091,7.809,7.809,0,0,7.6548,7.6642,7.673,7.6928,7.7014,7.7165,7.7079,7.7241,7.7353,7.7329,7.7535,7.76,7.773,7.796,7.8065,7.8021,7.8415,7.83,7.8314,7.8328,7.8461,7.8497,7.853,7.8102,7.81,7.8098,0,0,7.6782,7.6865,7.7038,7.7127,7.7259,7.7306,7.7347,7.7476,7.7518,7.7726,7.7711,7.7846,7.8097,7.8191,7.8272,7.8545,7.8528,7.8589,7.8718,7.8851,7.8882,7.8909,7.901,7.9045,7.8612,7.8613,7.8613,0,7.6872,7.7096,7.7128,7.7293,7.7382,7.7366,7.7542,7.7627,7.7799,7.7862,7.7809,7.8126,7.8211,7.8465,7.8532,7.8597,7.8648,7.8574,7.8874,7.8902,7.8928,7.9025,7.9062,7.862,7.8619,7.8618,7.8617,0,7.7203,7.7359,7.7482,7.7649,7.7752,7.7921,7.7981,7.8081,7.809,7.8144,7.8357,7.846,7.8623,7.8684,7.8694,7.8941,7.891,7.8865,7.8771,7.8971,7.9063,7.91,7.8629,7.8627,7.8625,7.8623,0,0,7.7484,7.7667,7.7712,7.7789,7.7935,7.8057,7.8227,7.8386,7.8473,7.8593,7.8739,7.8953,7.8914,7.9005,7.9026,7.9143,7.9358,7.9085,7.9089,7.9135,7.9641,7.9675,7.9717,7.9346,7.9353,7.9359,7.9631,0,7.7734,7.8034,7.8068,7.8337,7.8483,7.8472,7.8621,7.8728,7.8783,7.8917,7.8978,7.913,7.9065,7.9121,7.9236,7.9307,7.946,7.9287,7.9486,7.9492,7.9456,7.9765,7.9801,8.0053,7.9667,7.9673,7.9677,0,7.8066,7.8196,7.8478,7.8607,7.867,7.8803,7.8953,7.908,7.9203,7.9235,7.9339,7.9345,7.9524,7.9421,7.967,7.9552,7.9635,7.9683,7.9693,7.9715,7.9598,7.9798,8.0133,8.0172,7.9733,7.9729,7.9725,0,7.8247,7.8492,7.8694,7.8759,7.8914,7.9008,7.9077,7.9193,7.9287,7.9419,7.9481,7.9632,7.9716,7.9833,7.9882,7.9801,8.013,8.0029,8.0164,8.0164,8.0236,8.0231,8.0592,8.0285,8.0284,8.0283,8.0282,0,7.8524,7.8699,7.8777,7.8902,7.9098,7.9137,7.9331,7.9396,7.95,7.9639,7.9637,7.9768,7.9822,7.9963,8.0002,8.0204,8.0241,8.0275,8.0283,8.0277,8.0273,8.0333,8.0319,8.0293,8.0291,8.0289,8.0287,0,7.876,7.8819,7.9039,7.9168,7.9204,7.9344,7.9455,7.9577,7.9631,7.9807,7.9851,7.9936,8.0102,8.0161,8.0362,8.0388,8.0625,8.0617,8.0583,8.0586,8.0719,8.0707,8.1134,8.1194,8.0844,8.0847,8.085,0,7.8935,7.9069,7.9212,7.9305,7.9378,7.9526,7.9623,7.9667,7.9768,7.992,8.0025,8.0189,8.0323,8.0588,8.067,8.0825,8.0823,8.0962,8.0846,8.0837,8.083,8.0823,8.0838,8.0985,8.0988,8.0991,8.0993,0,7.924,7.9263,7.9402,7.9552,7.9668,7.9788,7.9905,7.9982,8.0044,8.0158,8.0327,8.0431,8.0637,8.0802,8.0961,8.1034,8.1027,8.1029,8.1069,8.1065,8.1042,8.106,8.0646,8.102,8.1017,8.1015,8.1014,8.1013,7.9453,7.9573,7.9694,7.985,7.9942,8.0052,8.0174,8.0244,8.0385,8.0556,8.0573,8.0757,8.0879,8.1092,8.1173,8.1318,8.1281,8.1337,8.1353,8.1367,8.1379,8.1016,8.1347,8.1346,8.1346,8.1345,8.1345,0,7.9762,7.9839,7.9981,8.0145,8.0269,8.0248,8.0378,8.0483,8.0644,8.0758,8.089,8.1087,8.1247,8.1342,8.1503,8.1602,8.1603,8.1643,8.1638,8.1656,8.1401,8.1352,8.164,8.164,8.164,8.164,8.164,8.164,7.9937,8.014,8.0178,8.0429,8.0505,8.0684,8.076,8.0863,8.0954,8.1173,8.1306,8.1366,8.1475,8.1644,8.1792,8.1816,8.1877,8.1922,8.1943,8.1704,8.1673,8.1644,8.1599,8.1934,8.1934,8.2186,8.2188,8.219]},{"header":{"parameterUnit":"m.s-1","parameterCategory":1,"la1":30.2991,"la2":30.254,"lo1":-89.0895,"lo2":-89.0444,"dy":0.0017,"dx":0.0017,"nx":28,"ny":28,"refTime":"2024-02-13T03:00:00:Z","depth":0,"parameterNumber":3,"parameterNumberName":"V-component_of_WINDS"},"data":[0,0,0,0,0,0,0,0,0,0,0,0,0,0,0,0,0,0,0,0,0,0,0,0,0,0,0,0,0,0,0,0,0,0,0,0,0,0,0,0,0,0,0,0,0,0,0,0,0,0,0,0,0,0,0,0,0,0,-3.8166,-3.8166,0,-3.822,-3.822,-3.8221,-3.8258,-3.8258,-3.8259,-3.8259,-3.8309,-3.831,-3.8311,0,0,0,0,0,0,0,0,0,0,0,0,0,-3.8088,-3.809,-3.8165,-3.8166,-3.8167,-3.822,-3.822,-3.8221,-3.8258,-3.8258,-3.8259,-3.8259,-3.8309,-3.831,-3.8311,0,0,0,0,0,0,0,0,0,0,0,0,0,-3.813,-3.809,-3.8165,-3.8192,-3.8195,-3.8219,-3.822,-3.8221,-3.8258,-3.8259,-3.8259,-3.8259,-3.8308,-3.831,-3.8312,-3.8313,0,0,-3.8316,-3.8317,0,0,0,0,0,0,0,0,-3.8127,-3.8133,-3.8187,-3.819,-3.8193,-3.8233,-3.8212,-3.8252,-3.8258,-3.8234,-3.8259,-3.826,-3.8283,-3.8287,-3.8296,-3.8315,-3.8317,-3.8317,-3.8317,-3.8318,-3.8319,0,0,0,0,0,0,0,-3.8125,-3.8131,-3.8187,-3.8188,-3.8192,-3.8199,-3.8206,-3.8219,-3.8255,-3.8236,-3.8239,-3.8245,-3.8285,-3.8294,-3.8297,-3.8318,-3.8316,-3.8318,-3.8319,-3.8319,-3.8339,-3.8338,0,0,0,0,0,0,-3.8118,-3.8128,-3.8185,-3.8188,-3.8161,-3.82,-3.8207,-3.822,-3.8255,-3.8261,-3.8245,-3.8247,-3.8291,-3.8295,-3.8299,-3.8302,-3.8318,-3.832,-3.8321,-3.8339,-3.8339,-3.8338,0,0,0,0,0,0,-3.8117,-3.8123,-3.8183,-3.8159,-3.8167,-3.8201,-3.8214,-3.822,-3.823,-3.8262,-3.8268,-3.8248,-3.8292,-3.8297,-3.8309,-3.8304,-3.832,-3.8322,-3.834,-3.8339,-3.8339,-3.8307,0,0,0,0,0,0,-3.8114,-3.8122,-3.8124,-3.8159,-3.8168,-3.8193,-3.8214,-3.8221,-3.8233,-3.8236,-3.8267,-3.8272,-3.8292,-3.8306,-3.8311,-3.8306,-3.8323,-3.834,-3.8339,-3.8339,-3.8309,-3.8306,-3.8303,0,0,0,0,0,-3.8111,-3.8113,-3.8124,-3.8131,-3.8172,-3.8193,-3.8198,-3.8224,-3.8233,-3.8234,-3.8254,-3.8271,-3.8304,-3.8307,-3.8312,-3.8309,-3.8341,-3.834,-3.8339,-3.831,-3.8306,-3.8303,0,0,0,0,0,0,-3.8075,-3.8118,-3.8131,-3.8144,-3.8165,-3.8199,-3.8202,-3.8219,-3.8236,-3.8238,-3.8267,-3.8273,-3.8282,-3.8297,-3.83,-3.8311,-3.8324,-3.8324,-3.8301,-3.8297,-3.8294,-3.829,-3.8324,0,0,0,0,0,-3.8069,-3.8084,-3.812,-3.8127,-3.8138,-3.8168,-3.8178,-3.8196,-3.8218,-3.8226,-3.8247,-3.8267,-3.8281,-3.829,-3.8306,-3.8311,-3.8317,-3.8311,-3.8308,-3.8305,-3.8305,-3.8307,-3.8304,-3.8335,-3.8335,-3.8335,0,0,-3.8055,-3.808,-3.8088,-3.8121,-3.8139,-3.8152,-3.8175,-3.8188,-3.8198,-3.8228,-3.8241,-3.8257,-3.828,-3.8289,-3.8293,-3.8301,-3.8298,-3.8304,-3.8302,-3.8302,-3.8306,-3.8303,-3.83,-3.8334,-3.8334,-3.8335,0,0,-3.8037,-3.8059,-3.8067,-3.8085,-3.8113,-3.8134,-3.8135,-3.8168,-3.818,-3.8194,-3.8216,-3.8227,-3.8252,-3.8267,-3.8278,-3.8266,-3.8281,-3.827,-3.8254,-3.8256,-3.8253,-3.8251,-3.8245,-3.8243,-3.8269,-3.8269,-3.8269,0,-3.8017,-3.804,-3.8069,-3.8081,-3.8094,-3.8123,-3.8131,-3.8146,-3.8177,-3.8184,-3.8193,-3.8224,-3.8242,-3.8254,-3.8251,-3.8259,-3.8261,-3.8266,-3.8252,-3.825,-3.8248,-3.8243,-3.8241,-3.8268,-3.8268,-3.8268,-3.8268,0,-3.8012,-3.8027,-3.803,-3.8061,-3.8074,-3.8084,-3.8112,-3.8122,-3.8138,-3.8157,-3.817,-3.8192,-3.8212,-3.8216,-3.8232,-3.823,-3.8234,-3.8247,-3.8261,-3.8243,-3.8238,-3.8237,-3.8265,-3.8266,-3.8266,-3.8267,0,0,-3.7972,-3.8019,-3.802,-3.8033,-3.8066,-3.8078,-3.8088,-3.8109,-3.8116,-3.8136,-3.8143,-3.8164,-3.8176,-3.8188,-3.8206,-3.8208,-3.8195,-3.822,-3.8221,-3.8213,-3.8192,-3.8181,-3.8178,-3.8205,-3.8205,-3.8205,-3.8189,0,-3.7958,-3.798,-3.8006,-3.8018,-3.8032,-3.8059,-3.8068,-3.8088,-3.8105,-3.8118,-3.8136,-3.815,-3.8166,-3.8173,-3.8177,-3.8196,-3.819,-3.8197,-3.8211,-3.8211,-3.8203,-3.8176,-3.8165,-3.8149,-3.8188,-3.8188,-3.8187,0,-3.7945,-3.7965,-3.7979,-3.801,-3.8016,-3.8024,-3.8044,-3.8057,-3.8079,-3.8091,-3.8105,-3.8124,-3.8134,-3.8148,-3.8161,-3.8165,-3.8172,-3.8182,-3.8182,-3.8183,-3.8197,-3.8174,-3.8144,-3.8141,-3.8185,-3.8185,-3.8185,0,-3.7913,-3.7943,-3.7955,-3.7966,-3.8003,-3.8007,-3.8022,-3.8045,-3.8056,-3.8073,-3.808,-3.8098,-3.8107,-3.812,-3.8143,-3.8151,-3.8152,-3.8168,-3.8161,-3.816,-3.8159,-3.8158,-3.8128,-3.8166,-3.8166,-3.8166,-3.8166,0,-3.7894,-3.7901,-3.7941,-3.7948,-3.7956,-3.7985,-3.7991,-3.8009,-3.8029,-3.8038,-3.8063,-3.8071,-3.8101,-3.8112,-3.8129,-3.8136,-3.8141,-3.8149,-3.8154,-3.8146,-3.8145,-3.815,-3.8151,-3.8166,-3.8166,-3.8166,-3.8166,0,-3.7859,-3.7887,-3.7901,-3.7935,-3.7943,-3.7947,-3.7975,-3.7982,-3.8001,-3.8013,-3.8017,-3.8046,-3.806,-3.8084,-3.8105,-3.8117,-3.8119,-3.8128,-3.8112,-3.8114,-3.8105,-3.8105,-3.8076,-3.8072,-3.8114,-3.8114,-3.8113,0,-3.7844,-3.785,-3.7885,-3.7894,-3.7909,-3.7923,-3.7934,-3.7963,-3.7973,-3.7999,-3.8001,-3.8018,-3.8032,-3.8053,-3.8074,-3.809,-3.8098,-3.8086,-3.81,-3.8092,-3.8095,-3.8094,-3.8094,-3.8083,-3.8082,-3.8082,-3.8081,0,-3.7815,-3.7828,-3.7845,-3.7865,-3.7878,-3.7896,-3.7914,-3.7919,-3.7951,-3.7961,-3.7977,-3.7988,-3.8009,-3.8024,-3.8043,-3.8056,-3.8073,-3.8077,-3.8076,-3.8067,-3.8057,-3.8061,-3.8102,-3.8077,-3.8078,-3.8078,-3.8078,-3.8078,-3.7789,-3.7795,-3.782,-3.7837,-3.7854,-3.787,-3.7878,-3.7899,-3.7913,-3.7933,-3.7949,-3.7963,-3.7983,-3.801,-3.8023,-3.8032,-3.804,-3.8039,-3.8038,-3.8037,-3.8034,-3.8057,-3.8036,-3.8036,-3.8036,-3.8036,-3.8037,0,-3.7759,-3.7777,-3.7792,-3.7818,-3.783,-3.7848,-3.7868,-3.7877,-3.7889,-3.7908,-3.7922,-3.7939,-3.7953,-3.7977,-3.7992,-3.7996,-3.8004,-3.7999,-3.7998,-3.8,-3.8026,-3.8025,-3.7992,-3.7992,-3.7992,-3.7992,-3.7992,-3.7992,-3.7745,-3.7756,-3.7772,-3.7791,-3.7808,-3.7823,-3.7833,-3.7848,-3.7863,-3.7881,-3.7894,-3.7909,-3.7929,-3.7947,-3.796,-3.7966,-3.797,-3.7962,-3.797,-3.7994,-3.7998,-3.8002,-3.8001,-3.7963,-3.7963,-3.7943,-3.7943,-3.7943]}]]